Weather History for Effingham, IL

Change the Weather History Date:

Friday, April 12, 2013

  Actual Average (KMTO) Record (KMTO)
Temperature  
Mean Temperature 42 °F 52 °F  
Max Temperature 47 °F 62 °F 82 °F (1971)
Min Temperature 36 °F 42 °F 24 °F (1957)
Degree Days  
Heating Degree Days 24 13  
Month to date heating degree days 182  
Since 1 July heating degree days 5085  
Cooling Degree Days 0 0  
Month to date cooling degree days 0  
Year to date cooling degree days 1  
Moisture  
Dew Point 31 °F    
Average Humidity 67    
Maximum Humidity 81    
Minimum Humidity 57    
Precipitation  
Precipitation 0.00 in 0.10 in 1.31 in (1952)
Month to date precipitation 1.15  
Year to date precipitation 7.70  
Sea Level Pressure  
Sea Level Pressure 29.83 in    
Wind  
Wind Speed 11 mph (WSW)    
Max Wind Speed 20 mph    
Max Gust Speed 26 mph    
Visibility 10 miles    
Events      
T = Trace of Precipitation, MM = Missing Value Source: NWS Daily Summary

Daily Weather History Graph

Daily Weather History Graph

Search for Another Location

Airport:

Trip Planner

Search our weather history database for the weather conditions in past years. The results will help you decide how hot, cold, wet, or windy it might be!

Date:

Astronomy

Apr. 12, 2013 Rise Set
Actual Time 6:21 AM CDT 7:28 PM CDT
Civil Twilight 5:54 AM CDT 7:56 PM CDT
Nautical Twilight 5:21 AM CDT 8:29 PM CDT
Astronomical Twilight 4:47 AM CDT 9:03 PM CDT
Moon 7:32 AM CDT (4/12) 9:58 PM CDT (4/12)
Length of Visible Light 14h 02m
Length of Day
13h 07m
Waxing Crescent, 5% of the Moon is Illuminated
Apr 12
Waxing Crescent
Apr 18
First Quarter
Apr 25
Full
May 2
Last Quarter
May 9
New

Hourly Weather History & Observations

Time (CDT) Temp. Windchill Dew Point Humidity Pressure Visibility Wind Dir Wind Speed Gust Speed Precip Events Conditions
12:15 AM 40.8 °F 32.3 °F 32.0 °F 71% 29.73 in 10.0 mi West 17.3 mph 23.0 mph N/A   Overcast
12:35 AM 40.3 °F 32.2 °F 30.6 °F 68% 29.73 in 10.0 mi West 15.0 mph 21.9 mph N/A   Overcast
12:55 AM 39.2 °F 32.0 °F 29.3 °F 68% 29.73 in 10.0 mi West 11.5 mph - N/A   Scattered Clouds
1:15 AM 38.3 °F 32.5 °F 29.1 °F 70% 29.73 in 10.0 mi West 8.1 mph - N/A   Clear
1:35 AM 37.8 °F 31.8 °F 29.1 °F 71% 29.73 in 10.0 mi West 8.1 mph - N/A   Clear
1:55 AM 37.6 °F 32.3 °F 28.8 °F 70% 29.72 in 10.0 mi West 6.9 mph - N/A   Clear
2:15 AM 37.2 °F 33.6 °F 28.8 °F 71% 29.72 in 10.0 mi West 4.6 mph - N/A   Clear
2:35 AM 37.0 °F 32.4 °F 28.4 °F 71% 29.71 in 10.0 mi WSW 5.8 mph - N/A   Clear
2:55 AM 36.5 °F 31.8 °F 29.1 °F 75% 29.71 in 10.0 mi WSW 5.8 mph - N/A   Clear
3:15 AM 36.3 °F 32.5 °F 29.8 °F 77% 29.71 in 10.0 mi SW 4.6 mph - N/A   Clear
3:35 AM 36.0 °F 32.1 °F 30.2 °F 80% 29.71 in 10.0 mi SW 4.6 mph - N/A   Mostly Cloudy
3:55 AM 36.5 °F 32.7 °F 30.6 °F 79% 29.71 in 10.0 mi WSW 4.6 mph - N/A   Overcast
4:15 AM 36.7 °F 32.0 °F 30.7 °F 79% 29.71 in 10.0 mi SW 5.8 mph - N/A   Overcast
4:35 AM 37.4 °F 33.8 °F 32.0 °F 81% 29.72 in 10.0 mi SW 4.6 mph - N/A   Overcast
4:55 AM 37.4 °F 32.8 °F 31.5 °F 79% 29.72 in 10.0 mi SW 5.8 mph - N/A   Overcast
5:15 AM 37.8 °F 32.5 °F 31.8 °F 79% 29.72 in 10.0 mi SW 6.9 mph - N/A   Overcast
5:35 AM 37.9 °F 33.5 °F 32.0 °F 79% 29.73 in 10.0 mi SW 5.8 mph - N/A   Overcast
5:55 AM 38.1 °F 34.6 °F 32.0 °F 79% 29.73 in 10.0 mi SSW 4.6 mph - N/A   Overcast
6:15 AM 38.5 °F 35.0 °F 32.0 °F 78% 29.73 in 10.0 mi SW 4.6 mph - N/A   Overcast
6:35 AM 38.3 °F 34.8 °F 32.5 °F 80% 29.75 in 10.0 mi SW 4.6 mph - N/A   Overcast
6:55 AM 39.2 °F 35.0 °F 32.9 °F 78% 29.75 in 10.0 mi SW 5.8 mph - N/A   Overcast
7:15 AM 39.7 °F 36.5 °F 32.4 °F 75% 29.76 in 10.0 mi WSW 4.6 mph - N/A   Overcast
7:35 AM 40.3 °F 34.4 °F 32.4 °F 73% 29.76 in 10.0 mi SW 9.2 mph - N/A   Scattered Clouds
7:55 AM 41.0 °F 34.3 °F 31.8 °F 70% 29.76 in 10.0 mi WSW 11.5 mph - N/A   Clear
8:15 AM 41.5 °F 33.5 °F 31.5 °F 67% 29.77 in 10.0 mi WSW 16.1 mph 20.7 mph N/A   Clear
8:35 AM 41.9 °F 34.3 °F 31.6 °F 67% 29.77 in 10.0 mi WSW 15.0 mph 21.9 mph N/A   Scattered Clouds
8:55 AM 42.6 °F 35.6 °F 31.6 °F 65% 29.77 in 10.0 mi WSW 13.8 mph 20.7 mph N/A   Clear
9:15 AM 43.2 °F 36.2 °F 31.1 °F 62% 29.77 in 10.0 mi WSW 13.8 mph 21.9 mph N/A   Scattered Clouds
9:35 AM 42.8 °F 35.1 °F 32.0 °F 66% 29.77 in 10.0 mi WSW 16.1 mph 24.2 mph N/A   Mostly Cloudy
9:55 AM 42.8 °F 36.6 °F 31.1 °F 63% 29.78 in 10.0 mi WSW 11.5 mph - N/A   Overcast
10:15 AM 42.8 °F 35.8 °F 29.7 °F 60% 29.78 in 10.0 mi WSW 13.8 mph 21.9 mph N/A   Overcast
10:35 AM 42.3 °F 35.9 °F 30.7 °F 64% 29.79 in 10.0 mi West 11.5 mph - N/A   Overcast
10:55 AM 42.3 °F 34.1 °F 30.2 °F 62% 29.80 in 10.0 mi West 17.3 mph 21.9 mph N/A   Overcast
11:15 AM 42.4 °F 34.7 °F 29.8 °F 61% 29.81 in 10.0 mi WSW 16.1 mph 21.9 mph N/A   Overcast
11:35 AM 42.4 °F 34.1 °F 29.8 °F 61% 29.82 in 10.0 mi West 18.4 mph 24.2 mph N/A   Overcast
11:55 AM 42.6 °F 35.9 °F 30.2 °F 61% 29.82 in 10.0 mi WSW 12.7 mph 23.0 mph N/A   Overcast
12:15 PM 43.2 °F 35.6 °F 31.1 °F 62% 29.83 in 10.0 mi West 16.1 mph - N/A   Overcast
12:35 PM 43.7 °F 36.3 °F 31.3 °F 62% 29.83 in 10.0 mi WSW 16.1 mph 19.6 mph N/A   Overcast
12:55 PM 44.1 °F 36.5 °F 31.1 °F 60% 29.83 in 10.0 mi West 17.3 mph 24.2 mph N/A   Overcast
1:15 PM 45.0 °F 38.2 °F 31.3 °F 59% 29.84 in 10.0 mi WSW 15.0 mph 21.9 mph N/A   Overcast
1:35 PM 45.7 °F 39.1 °F 32.4 °F 60% 29.85 in 10.0 mi WSW 15.0 mph 24.2 mph N/A   Overcast
1:55 PM 46.4 °F 39.8 °F 32.7 °F 59% 29.85 in 10.0 mi West 16.1 mph 25.3 mph N/A   Overcast
2:15 PM 46.4 °F 39.2 °F 32.2 °F 58% 29.85 in 10.0 mi WSW 18.4 mph 26.5 mph N/A   Overcast
2:35 PM 47.1 °F - 32.4 °F 57% 29.86 in 10.0 mi WSW 19.6 mph 24.2 mph N/A   Overcast
2:55 PM 46.4 °F 39.2 °F 32.2 °F 58% 29.87 in 10.0 mi WSW 18.4 mph 24.2 mph N/A   Overcast
3:15 PM 46.0 °F 38.5 °F 32.2 °F 58% 29.87 in 10.0 mi West 19.6 mph 25.3 mph N/A   Overcast
3:35 PM 46.4 °F 39.8 °F 32.2 °F 58% 29.88 in 10.0 mi WSW 16.1 mph 25.3 mph N/A   Overcast
3:55 PM 45.7 °F 39.1 °F 32.2 °F 59% 29.89 in 10.0 mi WSW 15.0 mph 23.0 mph N/A   Overcast
4:15 PM 45.5 °F 38.3 °F 32.9 °F 61% 29.89 in 10.0 mi West 17.3 mph 26.5 mph N/A   Overcast
4:35 PM 46.0 °F 39.0 °F 32.2 °F 58% 29.90 in 10.0 mi West 17.3 mph 24.2 mph N/A   Overcast
4:55 PM 45.0 °F 38.9 °F 32.0 °F 60% 29.90 in 10.0 mi West 12.7 mph - N/A   Overcast
5:15 PM 44.8 °F 39.0 °F 32.0 °F 61% 29.91 in 10.0 mi West 11.5 mph 21.9 mph N/A   Overcast
5:35 PM 44.8 °F 39.9 °F 32.4 °F 62% 29.92 in 10.0 mi West 9.2 mph - N/A   Overcast
5:55 PM 44.1 °F 37.7 °F 32.7 °F 64% 29.93 in 10.0 mi West 12.7 mph - N/A   Overcast
6:15 PM 43.7 °F 38.1 °F 32.2 °F 64% 29.93 in 10.0 mi West 10.4 mph - N/A   Overcast
6:35 PM 43.7 °F 37.7 °F 32.2 °F 64% 29.93 in 10.0 mi WSW 11.5 mph - N/A   Overcast
6:55 PM 43.3 °F 37.2 °F 32.2 °F 65% 29.94 in 10.0 mi West 11.5 mph 17.3 mph N/A   Overcast
7:15 PM 43.0 °F 36.4 °F 32.0 °F 65% 29.94 in 10.0 mi West 12.7 mph 18.4 mph N/A   Overcast
7:35 PM 42.8 °F 36.2 °F 32.0 °F 66% 29.94 in 10.0 mi West 12.7 mph 19.6 mph N/A   Overcast
7:55 PM 42.8 °F 37.0 °F 32.0 °F 66% 29.95 in 10.0 mi West 10.4 mph - N/A   Overcast
8:15 PM 42.4 °F 36.5 °F 32.2 °F 67% 29.95 in 10.0 mi West 10.4 mph - N/A   Overcast
8:35 PM 42.4 °F 36.5 °F 32.0 °F 67% 29.96 in 10.0 mi West 10.4 mph - N/A   Overcast
8:55 PM 42.1 °F 38.4 °F 31.8 °F 67% 29.96 in 10.0 mi West 5.8 mph - N/A   Overcast
9:15 PM 42.3 °F 38.6 °F 31.8 °F 67% 29.96 in 10.0 mi WSW 5.8 mph - N/A   Overcast
9:35 PM 42.3 °F 37.9 °F 32.0 °F 67% 29.97 in 10.0 mi WSW 6.9 mph - N/A   Overcast
9:55 PM 42.3 °F 37.3 °F 32.0 °F 67% 29.97 in 10.0 mi WSW 8.1 mph - N/A   Overcast
10:15 PM 42.3 °F 38.6 °F 32.0 °F 67% 29.98 in 10.0 mi WSW 5.8 mph - N/A   Overcast
10:35 PM 42.3 °F 37.3 °F 32.2 °F 67% 29.98 in 10.0 mi WSW 8.1 mph - N/A   Overcast
10:55 PM 42.3 °F 37.9 °F 32.2 °F 67% 29.98 in 10.0 mi WSW 6.9 mph - N/A   Overcast
11:15 PM 42.3 °F 37.3 °F 32.7 °F 69% 29.98 in 10.0 mi WSW 8.1 mph - N/A   Overcast
11:35 PM 42.3 °F 37.3 °F 32.4 °F 68% 29.99 in 10.0 mi WSW 8.1 mph - N/A   Overcast
11:55 PM 42.1 °F 37.7 °F 32.7 °F 69% 29.99 in 10.0 mi WSW 6.9 mph - N/A   Overcast